LKCS Weather Reports


time (UTC)temp
C
wind
direction
speed
KPH
gust
KPH
rain 1hr
cm
rain 24hr
cm
rain mn
cm
humidity
%
barometer
mb
20260905233305 15 280 11.3 0.0 0.00 0.00 0.00 62 1025.0
20260905230307 16 290 12.9 0.0 0.00 0.00 0.00 59 1025.0
20260905223231 17 290 12.9 0.0 0.00 0.00 0.00 55 1025.0
20260905220252 17 300 12.9 0.0 0.00 0.00 0.00 55 1025.0
20260905213304 17 300 12.9 0.0 0.00 0.00 0.00 52 1024.0
20260905210251 17 310 12.9 0.0 0.00 0.00 0.00 52 1024.0
20260905210120 18 310 12.9 0.0 0.00 0.00 0.00 52 1024.0
20260905205158 18 310 12.9 0.0 0.00 0.00 0.00 52 1024.0
20260905204758 18 310 12.9 0.0 0.00 0.00 0.00 52 1024.0
20260905204159 18 310 12.9 0.0 0.00 0.00 0.00 52 1024.0
20260905203306 18 310 12.9 0.0 0.00 0.00 0.00 52 1024.0
20260905203259 16 260 11.3 0.0 0.00 0.00 0.00 67 1023.0
20260905200959 16 260 11.3 0.0 0.00 0.00 0.00 67 1023.0
20260905200403 16 260 11.3 0.0 0.00 0.00 0.00 67 1023.0
20260905195959 17 260 9.7 0.0 0.00 0.00 0.00 63 1023.0
20260905195259 17 260 9.7 0.0 0.00 0.00 0.00 63 1023.0
20260905194159 17 260 9.7 0.0 0.00 0.00 0.00 63 1023.0
20260905193512 17 260 9.7 0.0 0.00 0.00 0.00 63 1023.0
20260905193259 17 260 9.7 0.0 0.00 0.00 0.00 63 1023.0
20260905192800 17 260 8.0 0.0 0.00 0.00 0.00 63 1022.0
20260905192213 17 260 8.0 0.0 0.00 0.00 0.00 63 1022.0
20260905191659 17 260 8.0 0.0 0.00 0.00 0.00 63 1022.0
20260905181359 17 260 12.9 0.0 0.00 0.00 0.00 63 1022.0
20260905181159 17 260 12.9 0.0 0.00 0.00 0.00 63 1022.0
20260905180759 17 260 12.9 0.0 0.00 0.00 0.00 63 1022.0
20260905180402 17 260 12.9 0.0 0.00 0.00 0.00 63 1022.0
20260905180201 18 270 14.5 0.0 0.00 0.00 0.00 59 1021.0
20260905175459 18 270 14.5 0.0 0.00 0.00 0.00 59 1021.0
20260905175259 18 270 14.5 0.0 0.00 0.00 0.00 59 1021.0
20260905174759 18 270 14.5 0.0 0.00 0.00 0.00 59 1021.0
20260905174159 18 270 14.5 0.0 0.00 0.00 0.00 59 1021.0
20260905173513 18 270 14.5 0.0 0.00 0.00 0.00 59 1021.0
20260905172759 21 260 25.7 0.0 0.00 0.00 0.00 52 1021.0
20260905172213 21 260 25.7 0.0 0.00 0.00 0.00 52 1021.0
20260905171621 21 260 25.7 0.0 0.00 0.00 0.00 52 1021.0
20260905170621 21 260 25.7 0.0 0.00 0.00 0.00 52 1021.0
20260905163907 22 270 29.0 0.0 0.00 0.00 0.00 46 1021.0
20260905163304 22 270 29.0 0.0 0.00 0.00 0.00 46 1021.0
20260905163005 22 270 24.1 0.0 0.00 0.00 0.00 49 1021.0
20260905162320 22 270 24.1 0.0 0.00 0.00 0.00 49 1021.0
20260905161707 22 270 24.1 0.0 0.00 0.00 0.00 49 1021.0
20260905161207 22 270 24.1 0.0 0.00 0.00 0.00 49 1021.0
20260905160906 22 270 24.1 0.0 0.00 0.00 0.00 49 1021.0
20260905160425 22 270 24.1 0.0 0.00 0.00 0.00 49 1021.0
20260905154806 22 260 25.7 0.0 0.00 0.00 0.00 49 1021.0
20260905154628 22 260 25.7 0.0 0.00 0.00 0.00 49 1021.0
20260905154307 22 260 25.7 0.0 0.00 0.00 0.00 49 1021.0
20260905151924 22 260 25.7 0.0 0.00 0.00 0.00 49 1021.0
20260905151207 22 260 25.7 0.0 0.00 0.00 0.00 49 1021.0
20260905150705 22 260 25.7 0.0 0.00 0.00 0.00 49 1021.0
20260905150006 22 260 29.0 48.3 0.00 0.00 0.00 49 1021.0
20260905145706 22 260 29.0 48.3 0.00 0.00 0.00 49 1021.0
20260905145404 22 260 29.0 48.3 0.00 0.00 0.00 49 1021.0
20260905145205 22 260 27.4 0.0 0.00 0.00 0.00 46 1021.0
20260905144306 22 260 27.4 0.0 0.00 0.00 0.00 46 1021.0
20260905143807 22 260 27.4 0.0 0.00 0.00 0.00 46 1021.0
20260905142213 22 260 37.0 0.0 0.00 0.00 0.00 46 1021.0
20260905140541 22 260 37.0 0.0 0.00 0.00 0.00 46 1021.0
20260905140211 22 260 32.2 0.0 0.00 0.00 0.00 46 1021.0
20260905135128 22 260 32.2 0.0 0.00 0.00 0.00 46 1021.0
20260905134706 22 260 32.2 0.0 0.00 0.00 0.00 46 1021.0
20260905134306 22 260 32.2 0.0 0.00 0.00 0.00 46 1021.0
20260905133907 22 260 35.4 0.0 0.00 0.00 0.00 46 1021.0
20260905133520 22 260 35.4 0.0 0.00 0.00 0.00 46 1021.0
20260905133206 22 250 32.2 0.0 0.00 0.00 0.00 49 1021.0
20260905132323 22 250 32.2 0.0 0.00 0.00 0.00 49 1021.0
20260905131706 22 250 32.2 0.0 0.00 0.00 0.00 49 1021.0
20260905131206 22 250 32.2 0.0 0.00 0.00 0.00 49 1021.0
20260905130806 22 250 32.2 0.0 0.00 0.00 0.00 49 1021.0
20260905130424 22 250 32.2 0.0 0.00 0.00 0.00 49 1021.0
20260905130316 21 260 27.4 0.0 0.00 0.00 0.00 56 1021.0
20260905125706 21 260 27.4 0.0 0.00 0.00 0.00 56 1021.0
20260905125507 21 260 27.4 0.0 0.00 0.00 0.00 56 1021.0
20260905125307 21 260 27.4 0.0 0.00 0.00 0.00 56 1021.0
20260905125006 21 260 27.4 0.0 0.00 0.00 0.00 56 1021.0
20260905124627 21 260 27.4 0.0 0.00 0.00 0.00 56 1021.0
20260905124127 21 260 27.4 0.0 0.00 0.00 0.00 56 1021.0
20260905123707 21 260 27.4 0.0 0.00 0.00 0.00 56 1021.0
20260905123406 21 260 27.4 0.0 0.00 0.00 0.00 56 1021.0
20260905123207 21 260 32.2 0.0 0.00 0.00 0.00 56 1021.0
20260905122220 21 260 32.2 0.0 0.00 0.00 0.00 56 1021.0
20260905121817 21 260 32.2 0.0 0.00 0.00 0.00 56 1021.0
20260905121206 21 260 32.2 0.0 0.00 0.00 0.00 56 1021.0
20260905120622 21 260 32.2 0.0 0.00 0.00 0.00 56 1021.0
20260905115914 21 250 27.4 0.0 0.00 0.00 0.00 56 1021.0
20260905114127 21 250 27.4 0.0 0.00 0.00 0.00 56 1021.0
20260905113245 21 250 27.4 0.0 0.00 0.00 0.00 56 1021.0
20260905112806 21 250 25.7 0.0 0.00 0.00 0.00 56 1021.0
20260905112326 21 250 25.7 0.0 0.00 0.00 0.00 56 1021.0
20260905111927 21 250 25.7 0.0 0.00 0.00 0.00 56 1021.0
20260905110316 21 250 25.7 0.0 0.00 0.00 0.00 56 1021.0
20260905105306 20 250 24.1 0.0 0.00 0.00 0.00 64 1021.0
20260905105128 20 250 24.1 0.0 0.00 0.00 0.00 64 1021.0
20260905104706 20 250 24.1 0.0 0.00 0.00 0.00 64 1021.0
20260905104406 20 250 24.1 0.0 0.00 0.00 0.00 64 1021.0
20260905103305 20 250 24.1 0.0 0.00 0.00 0.00 64 1021.0
20260905102906 18 250 25.7 0.0 0.00 0.00 0.00 68 1021.0
20260905102418 18 250 25.7 0.0 0.00 0.00 0.00 68 1021.0
20260905102006 18 250 25.7 0.0 0.00 0.00 0.00 68 1021.0
20260905101506 18 250 25.7 0.0 0.00 0.00 0.00 68 1021.0
20260905100906 18 250 25.7 0.0 0.00 0.00 0.00 68 1021.0
20260905100429 18 250 25.7 0.0 0.00 0.00 0.00 68 1021.0
20260905095306 18 270 19.3 0.0 0.00 0.00 0.00 68 1021.0
20260905094906 18 270 19.3 0.0 0.00 0.00 0.00 68 1021.0
20260905094306 18 270 19.3 0.0 0.00 0.00 0.00 68 1021.0
20260905093807 18 270 19.3 0.0 0.00 0.00 0.00 68 1021.0
20260905092506 17 0 9.7 0.0 0.00 0.00 0.00 72 1021.0
20260905092026 17 0 9.7 0.0 0.00 0.00 0.00 72 1021.0
20260905090907 17 0 9.7 0.0 0.00 0.00 0.00 72 1021.0
20260905090253 17 0 9.7 0.0 0.00 0.00 0.00 72 1021.0
20260905084306 17 250 4.8 0.0 0.00 0.00 0.00 77 1021.0
20260905083238 17 250 4.8 0.0 0.00 0.00 0.00 77 1021.0
20260905080248 16 220 12.9 0.0 0.00 0.00 0.00 82 1021.0
20260905073244 15 200 9.7 0.0 0.00 0.00 0.00 87 1021.0
20260905070314 13 0 3.2 0.0 0.00 0.00 0.00 93 1020.0
20260905063239 13 190 8.0 0.0 0.00 0.00 0.00 87 1020.0
20260905060253 12 0 3.2 0.0 0.00 0.00 0.00 93 1020.0
20260905053230 13 290 11.3 0.0 0.00 0.00 0.00 87 1021.0
20260905050250 15 320 11.3 0.0 0.00 0.00 0.00 87 1020.0
20260905043305 16 320 12.9 0.0 0.00 0.00 0.00 82 1020.0
20260905040307 16 0 3.2 0.0 0.00 0.00 0.00 93 1019.0
20260905033238 17 310 4.8 0.0 0.00 0.00 0.00 82 1018.0
20260905030307 16 0 3.2 0.0 0.00 0.00 0.00 93 1018.0
20260905023231 17 0 3.2 0.0 0.00 0.00 0.00 77 1017.0
20260905020240 17 340 9.7 0.0 0.00 0.00 0.00 72 1017.0
20260905013238 18 10 14.5 0.0 0.00 0.00 0.00 68 1017.0
20260905011606 21 360 19.3 0.0 0.00 0.00 0.00 64 1016.0
20260905010248 25 300 12.9 0.0 0.00 0.00 0.00 50 1015.0
20260905003231 22 280 9.7 0.0 0.00 0.00 0.00 53 1014.0
20260905000306 23 260 16.1 0.0 0.00 0.00 0.00 50 1014.0